EW0429 Weather Reports


time (UTC)temp
C
wind
direction
speed
KPH
gust
KPH
rain 1hr
cm
rain 24hr
cm
rain mn
cm
humidity
%
barometer
mb
20260508070657 5 5 0.0 4.8 0.00 0.05 0.00 89 1001.9
20260508064446 5 9 0.0 4.8 0.00 0.10 0.00 89 1001.8
20260508062941 5 338 1.6 6.4 0.00 0.18 0.00 90 1001.8
20260508061440 5 17 0.0 1.6 0.00 0.28 0.00 90 1001.8
20260508060634 5 17 0.0 3.2 0.00 0.33 0.00 90 1001.9
20260508055146 5 311 0.0 0.0 0.00 0.36 0.00 90 1002.0
20260508053651 5 311 0.0 8.0 0.00 0.36 0.00 89 1002.0
20260508051435 5 17 1.6 6.4 0.00 0.38 0.00 89 1002.0
20260508050633 5 20 0.0 3.2 0.00 0.43 0.00 89 1002.0
20260508044436 5 20 0.0 1.6 0.00 0.51 0.00 89 1002.1
20260508042941 5 20 0.0 3.2 0.00 0.56 0.00 89 1002.1
20260508041435 5 21 0.0 0.0 0.00 0.64 0.00 89 1002.1
20260508035936 5 21 0.0 3.2 0.00 0.71 0.71 89 1002.0
20260508034433 5 21 0.0 3.2 0.00 0.74 0.71 89 1001.9
20260508032934 5 277 0.0 4.8 0.00 0.74 0.71 89 1002.1
20260508031429 5 279 0.0 0.0 0.00 0.74 0.71 91 1002.1
20260508030621 5 279 0.0 0.0 0.00 0.74 0.71 92 1002.2
20260508024428 5 279 0.0 0.0 0.00 0.76 0.71 91 1002.3
20260508022928 5 279 0.0 0.0 0.00 0.76 0.71 91 1002.4
20260508022135 4 279 0.0 0.0 0.00 0.79 0.71 91 1002.3
20260508014428 5 279 0.0 0.0 0.00 0.79 0.71 88 1002.4
20260508012928 5 279 0.0 0.0 0.00 0.81 0.71 88 1002.4
20260508011426 6 279 0.0 1.6 0.00 0.81 0.71 89 1002.4
20260508005926 6 279 0.0 0.0 0.00 0.84 0.71 88 1002.3
20260508004426 6 279 0.0 0.0 0.00 0.84 0.71 86 1002.4
20260508002924 6 279 0.0 1.6 0.00 0.89 0.71 85 1002.3
20260508001425 6 279 1.6 11.3 0.00 0.94 0.71 84 1002.3
20260507235924 7 279 4.8 17.7 0.00 0.97 0.71 80 1002.2
20260507235118 8 319 0.0 8.0 0.00 0.99 0.71 75 1001.8
20260507232924 8 10 1.6 9.7 0.00 0.99 0.71 74 1001.7
20260507231424 8 9 0.0 8.0 0.00 1.02 0.71 74 1001.9
20260507225923 8 309 0.0 8.0 0.00 1.02 0.71 76 1001.9
20260507224424 8 314 1.6 9.7 0.00 1.02 0.71 77 1001.8
20260507223618 8 261 3.2 17.7 0.00 1.02 0.71 76 1001.7
20260507221424 9 5 3.2 16.1 0.00 1.02 0.71 75 1001.6
20260507215929 9 340 4.8 20.9 0.00 1.04 0.71 76 1001.5
20260507215111 8 131 4.8 22.5 0.00 1.07 0.71 76 1001.4
20260507212917 8 30 4.8 19.3 0.00 1.09 0.71 76 1001.5
20260507211418 9 219 4.8 20.9 0.00 1.14 0.71 72 1001.5
20260507205917 9 223 9.7 27.4 0.00 1.17 0.71 70 1001.2
20260507204418 10 265 8.0 29.0 0.00 1.22 0.71 64 1000.9
20260507202917 12 44 9.7 38.6 0.00 1.24 0.71 57 1000.4
20260507201415 13 255 6.4 29.0 0.00 1.27 0.71 55 999.9
20260507195916 12 267 4.8 16.1 0.00 1.32 0.71 56 999.9
20260507194417 12 14 3.2 20.9 0.00 1.37 0.71 56 1000.0
20260507192918 12 267 1.6 25.7 0.00 1.40 0.71 54 1000.0
20260507191413 12 209 3.2 12.9 0.00 1.45 0.71 63 1000.0
20260507190607 12 165 8.0 17.7 0.00 1.50 0.71 61 1000.2
20260507184407 12 232 4.8 17.7 0.00 1.55 0.71 61 1000.2
20260507182907 11 207 0.0 9.7 0.00 1.60 0.71 60 1000.4
20260507182109 11 32 0.0 4.8 0.00 1.65 0.71 62 1000.4
20260507175906 11 24 0.0 6.4 0.00 1.70 0.71 65 1000.7
20260507175105 10 79 1.6 9.7 0.00 1.75 0.71 69 1000.8
20260507172901 10 348 4.8 17.7 0.00 1.80 0.71 73 1001.0
20260507171402 9 328 8.0 22.5 0.00 1.85 0.71 78 1001.0
20260507165903 11 351 4.8 25.7 0.00 1.93 0.71 65 1001.2
20260507165101 11 0 4.8 14.5 0.00 1.98 0.71 63 1000.8
20260507163556 12 279 3.2 9.7 0.00 2.03 0.71 62 1000.7
20260507161402 12 243 1.6 11.3 0.00 2.11 0.71 59 1000.6
20260507155902 13 225 3.2 11.3 0.00 2.13 0.71 54 1000.9
20260507155048 13 52 1.6 8.0 0.00 2.18 0.71 61 1001.1
20260507152858 12 294 1.6 8.0 0.00 2.24 0.71 62 1001.2
20260507151359 12 320 3.2 12.9 0.00 2.29 0.71 65 1001.6
20260507145858 11 107 3.2 8.0 0.00 2.34 0.71 68 1001.6
20260507144358 11 24 1.6 8.0 0.00 2.39 0.71 72 1001.6
20260507142858 11 234 1.6 9.7 0.00 2.46 0.71 73 1001.6
20260507141356 11 283 1.6 9.7 0.00 2.51 0.71 74 1001.7
20260507135851 10 301 1.6 14.5 0.00 2.57 0.71 76 1001.9
20260507135051 10 257 4.8 11.3 0.00 2.62 0.71 78 1002.3
20260507132852 10 5 3.2 9.7 0.00 2.67 0.71 77 1002.4
20260507131354 9 281 3.2 14.5 0.00 2.74 0.71 81 1002.3
20260507125852 9 5 1.6 6.4 0.00 2.82 0.71 84 1002.1
20260507124352 8 12 1.6 8.0 0.00 2.84 0.71 87 1002.7
20260507122854 7 256 0.0 8.0 0.00 2.84 0.71 89 1002.3
20260507121352 7 282 1.6 9.7 0.00 2.84 0.71 90 1002.7
20260507115852 7 336 1.6 9.7 0.00 2.84 0.71 92 1002.3
20260507114352 6 50 1.6 8.0 0.00 2.84 0.71 93 1002.3
20260507112854 6 281 1.6 6.4 0.00 2.84 0.71 93 1002.6
20260507111354 6 313 0.0 11.3 0.00 2.84 0.71 93 1002.3
20260507105854 6 265 1.6 8.0 0.00 2.84 0.71 94 1002.5
20260507104352 6 289 0.0 6.4 0.00 2.84 0.71 94 1002.5
20260507102851 5 317 0.0 3.2 0.00 2.84 0.71 94 1002.6
20260507101351 5 318 0.0 1.6 0.00 2.84 0.71 94 1002.6
20260507095853 5 321 0.0 0.0 0.00 2.84 0.71 94 1002.4
20260507095055 5 321 0.0 0.0 0.00 2.84 0.71 94 1002.4
20260507092852 5 321 0.0 4.8 0.00 2.84 0.71 94 1002.4
20260507091352 5 311 0.0 4.8 0.00 2.84 0.71 94 1002.4
20260507085851 5 355 0.0 0.0 0.00 2.87 0.71 95 1002.3
20260507084352 6 355 0.0 4.8 0.00 2.87 0.71 95 1002.1
20260507082851 6 351 0.0 4.8 0.00 2.87 0.71 95 1002.0
20260507081352 6 351 0.0 3.2 0.03 2.90 0.71 95 1002.1
20260507075852 6 355 1.6 6.4 0.05 2.90 0.71 95 1002.2
20260507074350 6 338 0.0 1.6 0.10 2.92 0.71 95 1002.3
20260507072847 6 338 0.0 3.2 0.18 2.92 0.71 95 1002.2
20260507071347 6 331 0.0 3.2 0.25 2.92 0.69 95 1002.2